Date String (YYYY-MM-DD hh:mm:ss) UTC,Instrument flags,absolute air pressure of the measurement (hPa),sample flow rate (lpm),inlet stack bypass flow (lpm),air temperature of the measurement (°C),ambient temperature measured by the external sensor (°C),aerosol sample conditioner tube jacket temperature (°C),OPC LED temperature (°C),internal box temperature (°C),relative humidity of the measurement (%),span deviation,mass concentration of particles derived from Lorenz-Mie calculation of OPC scattering (μg/m³),mass concentration of particles derived from Lorenz-Mie calculation of OPC scattering (μg/m³),mass concentration of particles derived from Lorenz-Mie calculation of OPC scattering (μg/m³)
DateTimeUTC,F1_M11,P_M11,Q1_M11,Q2_M11,T1_M11,T2_M11,T3_M11,T4_M11,T5_M11,U1_M11,ZSPAN_M11,X2_M11,X0_M11,X1_M11
2023-10-07 14:00:00,SystemResetWarning,0838.0,5.00,000.00,024.9,023.6,000.0,033.2,026.7,21.8,0000.0,0005.49,0009.58,0005.06
2023-10-07 14:01:00,SystemResetWarning,0838.0,5.00,000.00,024.9,023.6,000.0,033.2,026.7,21.8,0000.0,0005.51,0009.61,0005.07
2023-10-07 14:02:00,SystemResetWarning,0838.1,5.00,000.00,024.9,023.6,000.0,033.2,026.7,22.0,0000.0,0005.48,0009.45,0005.08
2023-10-07 14:03:00,SystemResetWarning,0838.1,5.00,000.00,025.0,023.6,000.0,033.3,026.7,21.9,0000.0,0005.48,0009.39,0005.09
2023-10-07 14:04:00,SystemResetWarning,0838.1,5.00,000.00,025.0,023.6,000.0,033.3,026.7,21.6,0000.0,0005.51,0009.44,0005.10
2023-10-07 14:05:00,SystemResetWarning,0838.1,5.00,000.00,025.0,023.6,000.0,033.3,026.7,21.6,0000.0,0005.53,0009.42,0005.10
2023-10-07 14:06:00,SystemResetWarning,0838.1,5.00,000.00,025.0,023.7,000.0,033.3,026.7,21.8,0000.0,0005.53,0009.62,0005.09
2023-10-07 14:07:00,SystemResetWarning,0838.0,5.00,000.00,025.0,023.7,000.0,033.3,026.7,22.0,0000.0,0005.49,0009.61,0005.06
2023-10-07 14:08:00,SystemResetWarning,0838.1,5.00,000.00,025.0,023.7,000.0,033.3,026.7,21.9,0000.0,0005.48,0009.87,0005.05
2023-10-07 14:09:00,SystemResetWarning,0838.1,5.00,000.00,025.0,023.7,000.0,033.3,026.7,22.0,0000.0,0005.46,0009.87,0005.02
2023-10-07 14:10:00,SystemResetWarning,0838.1,5.01,000.00,025.0,023.7,000.0,033.3,026.7,21.9,0000.0,0005.44,0009.65,0005.01
2023-10-07 14:11:00,SystemResetWarning,0838.2,5.01,000.00,025.0,023.7,000.0,033.4,026.8,21.8,0000.0,0005.42,0009.65,0005.00
2023-10-07 14:12:00,SystemResetWarning,0838.2,5.00,000.00,025.0,023.7,000.0,033.4,026.8,21.7,0000.0,0005.42,0009.61,0004.99
2023-10-07 14:13:00,SystemResetWarning,0838.2,4.99,000.00,025.1,023.8,000.0,033.4,026.8,21.6,0000.0,0005.43,0009.60,0004.99
2023-10-07 14:14:00,SystemResetWarning,0838.2,5.00,000.00,025.1,023.8,000.0,033.4,026.8,21.6,0000.0,0005.42,0009.59,0004.98
2023-10-07 14:15:00,SystemResetWarning,0838.2,5.00,000.00,025.1,023.8,000.0,033.4,026.8,21.7,0000.0,0005.44,0009.76,0004.98
2023-10-07 14:16:00,SystemResetWarning,0838.2,5.00,000.00,025.1,023.8,000.0,033.4,026.8,22.0,0000.0,0005.43,0010.42,0004.98
2023-10-07 14:17:00,SystemResetWarning,0838.2,4.99,000.00,025.1,023.8,000.0,033.4,026.8,21.8,0000.0,0005.42,0010.20,0004.99
2023-10-07 14:18:00,SystemResetWarning,0838.2,5.00,000.00,025.1,023.8,000.0,033.4,026.8,21.6,0000.0,0005.43,0009.87,0004.99
2023-10-07 14:19:00,SystemResetWarning,0838.2,5.01,000.00,025.1,023.9,000.0,033.5,026.9,21.5,0000.0,0005.42,0009.35,0004.99
2023-10-07 14:20:00,SystemResetWarning,0838.2,5.00,000.00,025.1,023.9,000.0,033.5,026.9,21.3,0000.0,0005.44,0009.28,0005.00
2023-10-07 14:21:00,SystemResetWarning,0838.2,4.99,000.00,025.2,023.9,000.0,033.5,026.9,21.3,0000.0,0005.44,0009.20,0005.01
2023-10-07 14:22:00,SystemResetWarning,0838.2,5.01,000.00,025.2,023.9,000.0,033.5,026.9,21.3,0000.6,0005.44,0009.19,0005.01
2023-10-07 14:23:00,SystemResetWarning,0838.2,5.01,000.00,025.2,023.9,000.0,033.5,026.9,21.2,0000.0,0005.43,0009.22,0005.00
2023-10-07 14:24:00,SystemResetWarning,0838.2,5.00,000.00,025.2,023.9,000.0,033.5,026.9,21.3,0000.0,0005.42,0009.20,0004.99
2023-10-07 14:25:00,SystemResetWarning,0838.2,4.99,000.00,025.2,023.9,000.0,033.5,026.9,21.3,0000.0,0005.42,0009.24,0005.00
2023-10-07 14:26:00,SystemResetWarning,0838.2,5.00,000.00,025.2,023.9,000.0,033.5,026.9,21.0,0000.0,0005.39,0009.12,0005.00
2023-10-07 14:27:00,SystemResetWarning,0838.2,5.01,000.00,025.2,024.0,000.0,033.6,027.0,21.1,0000.0,0005.39,0008.39,0005.01
2023-10-07 14:28:00,SystemResetWarning,0838.2,5.00,000.00,025.2,024.0,000.0,033.6,027.0,20.4,0000.0,0005.46,0008.58,0005.05
2023-10-07 14:29:00,SystemResetWarning,0838.2,4.99,000.00,025.3,024.0,000.0,033.6,027.0,20.8,0000.0,0005.50,0008.68,0005.09
2023-10-07 14:30:00,SystemResetWarning,0838.2,4.99,000.00,025.3,024.0,000.0,033.6,027.0,20.9,0000.0,0005.53,0008.75,0005.12
2023-10-07 14:31:00,SystemResetWarning,0838.2,5.00,000.00,025.3,024.0,000.0,033.6,027.0,20.5,0000.0,0005.52,0008.98,0005.13
2023-10-07 14:32:00,SystemResetWarning,0838.2,5.00,000.00,025.3,024.0,000.0,033.6,027.0,20.2,0000.0,0005.58,0009.18,0005.15
2023-10-07 14:33:00,SystemResetWarning,0838.2,5.00,000.00,025.3,024.1,000.0,033.6,027.0,20.4,0000.0,0005.62,0009.24,0005.17
2023-10-07 14:34:00,SystemResetWarning,0838.2,5.00,000.00,025.3,024.1,000.0,033.7,027.1,20.6,0000.0,0005.64,0009.22,0005.19
2023-10-07 14:35:00,SystemResetWarning,0838.2,5.00,000.00,025.3,024.1,000.0,033.7,027.1,20.8,0000.0,0005.69,0009.87,0005.22
2023-10-07 14:36:00,SystemResetWarning,0838.2,5.00,000.00,025.3,024.1,000.0,033.7,027.1,21.1,0000.0,0005.70,0010.15,0005.23
2023-10-07 14:37:00,SystemResetWarning,0838.2,5.01,000.00,025.4,024.1,000.0,033.7,027.1,20.9,0000.0,0005.72,0010.12,0005.23
2023-10-07 14:38:00,SystemResetWarning,0838.2,5.01,000.00,025.4,024.1,000.0,033.7,027.1,20.9,0000.0,0005.73,0010.12,0005.23
2023-10-07 14:39:00,SystemResetWarning,0838.2,5.00,000.00,025.4,024.2,000.0,033.7,027.1,20.7,0000.0,0005.68,0010.02,0005.22
2023-10-07 14:40:00,SystemResetWarning,0838.2,5.00,000.00,025.4,024.2,000.0,033.7,027.1,20.7,0000.0,0005.67,0010.31,0005.21
2023-10-07 14:41:00,SystemResetWarning,0838.2,5.00,000.00,025.4,024.2,000.0,033.8,027.2,20.6,0000.0,0005.67,0010.66,0005.20
2023-10-07 14:42:00,SystemResetWarning,0838.2,4.99,000.00,025.4,024.2,000.0,033.8,027.2,20.5,0000.0,0005.71,0010.43,0005.21
2023-10-07 14:43:00,SystemResetWarning,0838.2,4.99,000.00,025.5,024.2,000.0,033.8,027.2,20.2,0000.0,0005.69,0010.47,0005.19
2023-10-07 14:44:00,SystemResetWarning,0838.2,5.00,000.00,025.5,024.2,000.0,033.8,027.2,20.0,0000.0,0005.63,0010.70,0005.18
2023-10-07 14:45:00,SystemResetWarning,0838.2,5.00,000.00,025.5,024.3,000.0,033.8,027.2,20.1,0000.0,0005.62,0010.75,0005.16
2023-10-07 14:46:00,SystemResetWarning,0838.2,5.00,000.00,025.5,024.3,000.0,033.8,027.2,20.0,0000.0,0005.59,0010.30,0005.14
2023-10-07 14:47:00,SystemResetWarning,0838.2,5.01,000.00,025.5,024.3,000.0,033.8,027.3,20.1,0000.0,0005.60,0010.07,0005.13
2023-10-07 14:48:00,SystemResetWarning,0838.2,5.01,000.00,025.5,024.3,000.0,033.8,027.3,20.2,0000.0,0005.60,0010.63,0005.13
2023-10-07 14:49:00,SystemResetWarning,0838.2,5.00,000.00,025.5,024.3,000.0,033.9,027.3,20.2,0000.0,0005.59,0011.24,0005.13
2023-10-07 14:50:00,SystemResetWarning,0838.2,5.00,000.00,025.6,024.4,000.0,033.9,027.3,20.0,0000.0,0005.63,0011.55,0005.12
2023-10-07 14:51:00,SystemResetWarning,0838.2,4.99,000.00,025.6,024.4,000.0,033.9,027.3,20.2,0000.0,0005.65,0011.66,0005.11
2023-10-07 14:52:00,SystemResetWarning,0838.2,5.01,000.00,025.6,024.4,000.0,033.9,027.3,20.1,0000.0,0005.65,0011.32,0005.10
2023-10-07 14:53:00,SystemResetWarning,0838.2,5.01,000.00,025.6,024.4,000.0,033.9,027.4,20.1,0000.0,0005.63,0011.25,0005.10
2023-10-07 14:54:00,SystemResetWarning,0838.2,5.00,000.00,025.6,024.4,000.0,033.9,027.4,20.1,0000.0,0005.63,0011.24,0005.11
2023-10-07 14:55:00,SystemResetWarning,0838.2,4.99,000.00,025.6,024.4,000.0,034.0,027.4,19.9,0000.0,0005.65,0011.28,0005.11
2023-10-07 14:56:00,SystemResetWarning,0838.1,5.00,000.00,025.7,024.5,000.0,034.0,027.4,20.1,0000.0,0005.65,0011.41,0005.12
2023-10-07 14:57:00,SystemResetWarning,0838.2,5.00,000.00,025.7,024.5,000.0,034.0,027.4,20.0,0000.0,0005.63,0011.44,0005.12
2023-10-07 14:58:00,SystemResetWarning,0838.1,5.00,000.00,025.7,024.5,000.0,034.0,027.4,20.0,0000.0,0005.62,0012.05,0005.11
2023-10-07 14:59:00,SystemResetWarning,0838.2,5.01,000.00,025.7,024.5,000.0,034.0,027.4,19.8,0000.0,0005.60,0011.70,0005.10
